owner,sensor,date,latitude,longitude,vertical_datum,sea_water_practical_salinity,qcFlag 
TABS,ioos:station:wmo:42050:1,2013-11-01T00:00:00Z,28.8425,-94.2433,2.0,33.5063,11111222 
TABS,ioos:station:wmo:42050:1,2013-11-01T00:30:00Z,28.8425,-94.2433,2.0,33.5323,11111222 
TABS,ioos:station:wmo:42050:1,2013-11-01T01:00:00Z,28.8425,-94.2433,2.0,33.5424,11111222 
TABS,ioos:station:wmo:42050:1,2013-11-01T01:30:00Z,28.8425,-94.2433,2.0,33.5589,11111222 
TABS,ioos:station:wmo:42050:1,2013-11-01T02:00:00Z,28.8425,-94.2433,2.0,33.5589,11111222 
TABS,ioos:station:wmo:42050:1,2013-11-01T02:30:00Z,28.8425,-94.2433,2.0,33.5885,11111222 
TABS,ioos:station:wmo:42050:1,2013-11-01T03:00:00Z,28.8425,-94.2433,2.0,33.5951,11111222 
TABS,ioos:station:wmo:42050:1,2013-11-01T03:30:00Z,28.8425,-94.2433,2.0,33.6117,11111222 
TABS,ioos:station:wmo:42050:1,2013-11-01T04:00:00Z,28.8425,-94.2433,2.0,33.6282,11111222 
TABS,ioos:station:wmo:42050:1,2013-11-01T04:30:00Z,28.8425,-94.2433,2.0,33.6322,11111222 
TABS,ioos:station:wmo:42050:1,2013-11-01T05:00:00Z,28.8425,-94.2433,2.0,33.6478,11111222 
TABS,ioos:station:wmo:42050:1,2013-11-01T05:30:00Z,28.8425,-94.2433,2.0,33.621,11111222 
TABS,ioos:station:wmo:42050:1,2013-11-01T06:00:00Z,28.8425,-94.2433,2.0,33.6272,11111222 
TABS,ioos:station:wmo:42050:1,2013-11-01T06:30:00Z,28.8425,-94.2433,2.0,33.6322,11111222 
TABS,ioos:station:wmo:42050:1,2013-11-01T07:00:00Z,28.8425,-94.2433,2.0,33.6675,11111222 
TABS,ioos:station:wmo:42050:1,2013-11-01T07:30:00Z,28.8425,-94.2433,2.0,33.6932,11111222 
TABS,ioos:station:wmo:42050:1,2013-11-01T08:00:00Z,28.8425,-94.2433,2.0,33.7499,11111222 
TABS,ioos:station:wmo:42050:1,2013-11-01T08:30:00Z,28.8425,-94.2433,2.0,33.7769,11111222 
TABS,ioos:station:wmo:42050:1,2013-11-01T09:00:00Z,28.8425,-94.2433,2.0,33.8083,11111222 
TABS,ioos:station:wmo:42050:1,2013-11-01T09:30:00Z,28.8425,-94.2433,2.0,33.8089,11111222 
TABS,ioos:station:wmo:42050:1,2013-11-01T10:00:00Z,28.8425,-94.2433,2.0,33.8237,11111222 
TABS,ioos:station:wmo:42050:1,2013-11-01T10:30:00Z,28.8425,-94.2433,2.0,33.8457,11111222 
TABS,ioos:station:wmo:42050:1,2013-11-01T11:00:00Z,28.8425,-94.2433,2.0,33.866,11111222 
TABS,ioos:station:wmo:42050:1,2013-11-01T11:30:00Z,28.8425,-94.2433,2.0,33.8473,11111222 
TABS,ioos:station:wmo:42050:1,2013-11-01T12:00:00Z,28.8425,-94.2433,2.0,33.8604,11111222 
TABS,ioos:station:wmo:42050:1,2013-11-01T12:30:00Z,28.8425,-94.2433,2.0,33.9024,11111222 
TABS,ioos:station:wmo:42050:1,2013-11-01T13:00:00Z,28.8425,-94.2433,2.0,33.8879,11111222 
TABS,ioos:station:wmo:42050:1,2013-11-01T13:30:00Z,28.8425,-94.2433,2.0,33.8917,11111222 
TABS,ioos:station:wmo:42050:1,2013-11-01T14:00:00Z,28.8425,-94.2433,2.0,33.9204,11111222 
TABS,ioos:station:wmo:42050:1,2013-11-01T14:30:00Z,28.8425,-94.2433,2.0,33.8999,11111222 
TABS,ioos:station:wmo:42050:1,2013-11-01T15:00:00Z,28.8425,-94.2433,2.0,33.9011,11111222 
TABS,ioos:station:wmo:42050:1,2013-11-01T15:30:00Z,28.8425,-94.2433,2.0,33.9013,11111222 
TABS,ioos:station:wmo:42050:1,2013-11-01T16:00:00Z,28.8425,-94.2433,2.0,33.8938,11111222 
TABS,ioos:station:wmo:42050:1,2013-11-01T16:30:00Z,28.8425,-94.2433,2.0,33.8988,11111222 
TABS,ioos:station:wmo:42050:1,2013-11-01T17:00:00Z,28.8425,-94.2433,2.0,33.9252,11111222 
TABS,ioos:station:wmo:42050:1,2013-11-01T17:30:00Z,28.8425,-94.2433,2.0,33.9362,11111222 
TABS,ioos:station:wmo:42050:1,2013-11-01T18:00:00Z,28.8425,-94.2433,2.0,33.9565,11111222 
TABS,ioos:station:wmo:42050:1,2013-11-01T18:30:00Z,28.8425,-94.2433,2.0,33.9869,11111222 
TABS,ioos:station:wmo:42050:1,2013-11-01T19:00:00Z,28.8425,-94.2433,2.0,34.0242,11111222 
TABS,ioos:station:wmo:42050:1,2013-11-01T19:30:00Z,28.8425,-94.2433,2.0,34.0525,11111222 
TABS,ioos:station:wmo:42050:1,2013-11-01T20:00:00Z,28.8425,-94.2433,2.0,34.0603,11111222 
TABS,ioos:station:wmo:42050:1,2013-11-01T20:30:00Z,28.8425,-94.2433,2.0,34.1276,11111222 
TABS,ioos:station:wmo:42050:1,2013-11-01T21:00:00Z,28.8425,-94.2433,2.0,34.1229,11111222 
TABS,ioos:station:wmo:42050:1,2013-11-01T21:30:00Z,28.8425,-94.2433,2.0,34.0727,11111222 
TABS,ioos:station:wmo:42050:1,2013-11-01T22:00:00Z,28.8425,-94.2433,2.0,34.0751,11111222 
TABS,ioos:station:wmo:42050:1,2013-11-01T22:30:00Z,28.8425,-94.2433,2.0,34.0786,11111222 
TABS,ioos:station:wmo:42050:1,2013-11-01T23:00:00Z,28.8425,-94.2433,2.0,34.1285,11111222 
TABS,ioos:station:wmo:42050:1,2013-11-01T23:30:00Z,28.8425,-94.2433,2.0,34.1229,11111222 
TABS,ioos:station:wmo:42050:1,2013-11-02T00:00:00Z,28.8425,-94.2433,2.0,34.0912,11111222 
TABS,ioos:station:wmo:42050:1,2013-11-02T00:30:00Z,28.8425,-94.2433,2.0,34.0818,11111222 
TABS,ioos:station:wmo:42050:1,2013-11-02T01:00:00Z,28.8425,-94.2433,2.0,34.0358,11111222 
TABS,ioos:station:wmo:42050:1,2013-11-02T01:30:00Z,28.8425,-94.2433,2.0,34.0162,11111222 
TABS,ioos:station:wmo:42050:1,2013-11-02T02:00:00Z,28.8425,-94.2433,2.0,34.0094,11111222 
TABS,ioos:station:wmo:42050:1,2013-11-02T02:30:00Z,28.8425,-94.2433,2.0,34.0007,11111222 
TABS,ioos:station:wmo:42050:1,2013-11-02T03:00:00Z,28.8425,-94.2433,2.0,34.0062,11111222 
TABS,ioos:station:wmo:42050:1,2013-11-02T03:30:00Z,28.8425,-94.2433,2.0,34.0099,11111222 
TABS,ioos:station:wmo:42050:1,2013-11-02T04:00:00Z,28.8425,-94.2433,2.0,33.9979,11111222 
TABS,ioos:station:wmo:42050:1,2013-11-02T04:30:00Z,28.8425,-94.2433,2.0,34.0217,11111222 
TABS,ioos:station:wmo:42050:1,2013-11-02T05:00:00Z,28.8425,-94.2433,2.0,34.0284,11111222 
TABS,ioos:station:wmo:42050:1,2013-11-02T05:30:00Z,28.8425,-94.2433,2.0,34.0489,11111222 
TABS,ioos:station:wmo:42050:1,2013-11-02T06:00:00Z,28.8425,-94.2433,2.0,34.0887,11111222 
TABS,ioos:station:wmo:42050:1,2013-11-02T06:30:00Z,28.8425,-94.2433,2.0,34.0128,11111222 
TABS,ioos:station:wmo:42050:1,2013-11-02T07:00:00Z,28.8425,-94.2433,2.0,34.0166,11111222 
TABS,ioos:station:wmo:42050:1,2013-11-02T07:30:00Z,28.8425,-94.2433,2.0,34.0044,11111222 
TABS,ioos:station:wmo:42050:1,2013-11-02T08:00:00Z,28.8425,-94.2433,2.0,33.9797,11111222 
TABS,ioos:station:wmo:42050:1,2013-11-02T08:30:00Z,28.8425,-94.2433,2.0,33.9344,11111222 
TABS,ioos:station:wmo:42050:1,2013-11-02T09:00:00Z,28.8425,-94.2433,2.0,33.8718,11111222 
TABS,ioos:station:wmo:42050:1,2013-11-02T09:30:00Z,28.8425,-94.2433,2.0,33.8194,11111222 
TABS,ioos:station:wmo:42050:1,2013-11-02T10:00:00Z,28.8425,-94.2433,2.0,33.7641,11111222 
TABS,ioos:station:wmo:42050:1,2013-11-02T10:30:00Z,28.8425,-94.2433,2.0,33.7341,11111222 
TABS,ioos:station:wmo:42050:1,2013-11-02T11:00:00Z,28.8425,-94.2433,2.0,33.7204,11111222 
TABS,ioos:station:wmo:42050:1,2013-11-02T11:30:00Z,28.8425,-94.2433,2.0,33.6674,11111222 
TABS,ioos:station:wmo:42050:1,2013-11-02T12:00:00Z,28.8425,-94.2433,2.0,33.6386,11111222 
TABS,ioos:station:wmo:42050:1,2013-11-02T12:30:00Z,28.8425,-94.2433,2.0,33.5806,11111222 
TABS,ioos:station:wmo:42050:1,2013-11-02T13:00:00Z,28.8425,-94.2433,2.0,33.552,11111222 
TABS,ioos:station:wmo:42050:1,2013-11-02T13:30:00Z,28.8425,-94.2433,2.0,33.5355,11111222 
TABS,ioos:station:wmo:42050:1,2013-11-02T14:00:00Z,28.8425,-94.2433,2.0,33.5297,11111222 
TABS,ioos:station:wmo:42050:1,2013-11-02T14:30:00Z,28.8425,-94.2433,2.0,33.5264,11111222 
TABS,ioos:station:wmo:42050:1,2013-11-02T15:00:00Z,28.8425,-94.2433,2.0,33.528,11111222 
TABS,ioos:station:wmo:42050:1,2013-11-02T15:30:00Z,28.8425,-94.2433,2.0,33.5336,11111222 
TABS,ioos:station:wmo:42050:1,2013-11-02T16:00:00Z,28.8425,-94.2433,2.0,33.5725,11111222 
TABS,ioos:station:wmo:42050:1,2013-11-02T16:30:00Z,28.8425,-94.2433,2.0,33.5536,11111222 
TABS,ioos:station:wmo:42050:1,2013-11-02T17:00:00Z,28.8425,-94.2433,2.0,33.5766,11111222 
TABS,ioos:station:wmo:42050:1,2013-11-02T17:30:00Z,28.8425,-94.2433,2.0,33.5635,11111222 
TABS,ioos:station:wmo:42050:1,2013-11-02T18:00:00Z,28.8425,-94.2433,2.0,33.5566,11111222 
TABS,ioos:station:wmo:42050:1,2013-11-02T18:30:00Z,28.8425,-94.2433,2.0,33.562,11111222 
TABS,ioos:station:wmo:42050:1,2013-11-02T19:00:00Z,28.8425,-94.2433,2.0,33.5791,11111222 
TABS,ioos:station:wmo:42050:1,2013-11-02T19:30:00Z,28.8425,-94.2433,2.0,33.5974,11111222 
TABS,ioos:station:wmo:42050:1,2013-11-02T20:00:00Z,28.8425,-94.2433,2.0,33.5919,11111222 
TABS,ioos:station:wmo:42050:1,2013-11-02T20:30:00Z,28.8425,-94.2433,2.0,33.5981,11111222 
TABS,ioos:station:wmo:42050:1,2013-11-02T21:00:00Z,28.8425,-94.2433,2.0,33.6338,11111222 
TABS,ioos:station:wmo:42050:1,2013-11-02T21:30:00Z,28.8425,-94.2433,2.0,33.6656,11111222 
TABS,ioos:station:wmo:42050:1,2013-11-02T22:00:00Z,28.8425,-94.2433,2.0,33.6772,11111222 
TABS,ioos:station:wmo:42050:1,2013-11-02T22:30:00Z,28.8425,-94.2433,2.0,33.7123,11111222 
TABS,ioos:station:wmo:42050:1,2013-11-02T23:00:00Z,28.8425,-94.2433,2.0,33.7215,11111222 
TABS,ioos:station:wmo:42050:1,2013-11-02T23:30:00Z,28.8425,-94.2433,2.0,33.7186,11111222 
TABS,ioos:station:wmo:42050:1,2013-11-03T00:00:00Z,28.8425,-94.2433,2.0,33.7195,11111222 
TABS,ioos:station:wmo:42050:1,2013-11-03T00:30:00Z,28.8425,-94.2433,2.0,33.7246,11111222 
TABS,ioos:station:wmo:42050:1,2013-11-03T01:00:00Z,28.8425,-94.2433,2.0,33.7334,11111222 
TABS,ioos:station:wmo:42050:1,2013-11-03T01:30:00Z,28.8425,-94.2433,2.0,33.7369,11111222 
TABS,ioos:station:wmo:42050:1,2013-11-03T02:00:00Z,28.8425,-94.2433,2.0,33.7507,11111222 
TABS,ioos:station:wmo:42050:1,2013-11-03T02:30:00Z,28.8425,-94.2433,2.0,33.7668,11111222 
TABS,ioos:station:wmo:42050:1,2013-11-03T03:00:00Z,28.8425,-94.2433,2.0,33.7735,11111222 
TABS,ioos:station:wmo:42050:1,2013-11-03T03:30:00Z,28.8425,-94.2433,2.0,33.79,11111222 
TABS,ioos:station:wmo:42050:1,2013-11-03T04:00:00Z,28.8425,-94.2433,2.0,33.8263,11111222 
TABS,ioos:station:wmo:42050:1,2013-11-03T04:30:00Z,28.8425,-94.2433,2.0,33.8333,11111222 
TABS,ioos:station:wmo:42050:1,2013-11-03T05:00:00Z,28.8425,-94.2433,2.0,33.8517,11111222 
TABS,ioos:station:wmo:42050:1,2013-11-03T05:30:00Z,28.8425,-94.2433,2.0,33.8681,11111222 
TABS,ioos:station:wmo:42050:1,2013-11-03T06:00:00Z,28.8425,-94.2433,2.0,33.9025,11111222 
TABS,ioos:station:wmo:42050:1,2013-11-03T06:30:00Z,28.8425,-94.2433,2.0,33.9154,11111222 
TABS,ioos:station:wmo:42050:1,2013-11-03T07:00:00Z,28.8425,-94.2433,2.0,33.9246,11111222 
TABS,ioos:station:wmo:42050:1,2013-11-03T07:30:00Z,28.8425,-94.2433,2.0,33.9463,11111222 
TABS,ioos:station:wmo:42050:1,2013-11-03T08:00:00Z,28.8425,-94.2433,2.0,33.9489,11111222 
TABS,ioos:station:wmo:42050:1,2013-11-03T08:30:00Z,28.8425,-94.2433,2.0,33.9298,11111222 
TABS,ioos:station:wmo:42050:1,2013-11-03T09:00:00Z,28.8425,-94.2433,2.0,33.926,11111222 
TABS,ioos:station:wmo:42050:1,2013-11-03T09:30:00Z,28.8425,-94.2433,2.0,33.9369,11111222 
TABS,ioos:station:wmo:42050:1,2013-11-03T10:00:00Z,28.8425,-94.2433,2.0,33.9209,11111222 
TABS,ioos:station:wmo:42050:1,2013-11-03T10:30:00Z,28.8425,-94.2433,2.0,33.9068,11111222 
TABS,ioos:station:wmo:42050:1,2013-11-03T11:00:00Z,28.8425,-94.2433,2.0,33.8922,11111222 
TABS,ioos:station:wmo:42050:1,2013-11-03T11:30:00Z,28.8425,-94.2433,2.0,33.8695,11111222 
TABS,ioos:station:wmo:42050:1,2013-11-03T12:00:00Z,28.8425,-94.2433,2.0,33.8723,11111222 
TABS,ioos:station:wmo:42050:1,2013-11-03T12:30:00Z,28.8425,-94.2433,2.0,33.8581,11111222 
TABS,ioos:station:wmo:42050:1,2013-11-03T13:00:00Z,28.8425,-94.2433,2.0,33.8387,11111222 
TABS,ioos:station:wmo:42050:1,2013-11-03T13:30:00Z,28.8425,-94.2433,2.0,33.8414,11111222 
TABS,ioos:station:wmo:42050:1,2013-11-03T14:00:00Z,28.8425,-94.2433,2.0,33.8895,11111222 
TABS,ioos:station:wmo:42050:1,2013-11-03T14:30:00Z,28.8425,-94.2433,2.0,33.9263,11111222 
TABS,ioos:station:wmo:42050:1,2013-11-03T15:00:00Z,28.8425,-94.2433,2.0,33.7588,11111222 
TABS,ioos:station:wmo:42050:1,2013-11-03T15:30:00Z,28.8425,-94.2433,2.0,33.6981,11111222 
TABS,ioos:station:wmo:42050:1,2013-11-03T16:00:00Z,28.8425,-94.2433,2.0,33.7199,11111222 
TABS,ioos:station:wmo:42050:1,2013-11-03T16:30:00Z,28.8425,-94.2433,2.0,33.8832,11111222 
TABS,ioos:station:wmo:42050:1,2013-11-03T17:00:00Z,28.8425,-94.2433,2.0,34.0026,11111222 
TABS,ioos:station:wmo:42050:1,2013-11-03T17:30:00Z,28.8425,-94.2433,2.0,34.0273,11111222 
TABS,ioos:station:wmo:42050:1,2013-11-03T18:00:00Z,28.8425,-94.2433,2.0,34.0319,11111222 
TABS,ioos:station:wmo:42050:1,2013-11-03T18:30:00Z,28.8425,-94.2433,2.0,34.0466,11111222 
TABS,ioos:station:wmo:42050:1,2013-11-03T19:00:00Z,28.8425,-94.2433,2.0,34.0787,11111222 
TABS,ioos:station:wmo:42050:1,2013-11-03T19:30:00Z,28.8425,-94.2433,2.0,34.1328,11111222 
TABS,ioos:station:wmo:42050:1,2013-11-03T20:00:00Z,28.8425,-94.2433,2.0,34.2275,11111222 
TABS,ioos:station:wmo:42050:1,2013-11-03T20:30:00Z,28.8425,-94.2433,2.0,34.2375,11111222 
TABS,ioos:station:wmo:42050:1,2013-11-03T21:00:00Z,28.8425,-94.2433,2.0,34.2753,11111222 
TABS,ioos:station:wmo:42050:1,2013-11-03T21:30:00Z,28.8425,-94.2433,2.0,34.2854,11111222 
TABS,ioos:station:wmo:42050:1,2013-11-03T22:00:00Z,28.8425,-94.2433,2.0,34.298,11111222 
TABS,ioos:station:wmo:42050:1,2013-11-03T22:30:00Z,28.8425,-94.2433,2.0,34.3009,11111222 
TABS,ioos:station:wmo:42050:1,2013-11-03T23:00:00Z,28.8425,-94.2433,2.0,34.3016,11111222 
TABS,ioos:station:wmo:42050:1,2013-11-03T23:30:00Z,28.8425,-94.2433,2.0,34.3031,11111222 
TABS,ioos:station:wmo:42050:1,2013-11-04T00:00:00Z,28.8425,-94.2433,2.0,34.3098,11111222 
TABS,ioos:station:wmo:42050:1,2013-11-04T00:30:00Z,28.8425,-94.2433,2.0,34.3128,11111222 
TABS,ioos:station:wmo:42050:1,2013-11-04T01:00:00Z,28.8425,-94.2433,2.0,34.2883,11111222 
TABS,ioos:station:wmo:42050:1,2013-11-04T01:30:00Z,28.8425,-94.2433,2.0,34.2958,11111222 
TABS,ioos:station:wmo:42050:1,2013-11-04T02:00:00Z,28.8425,-94.2433,2.0,34.2933,11111222 
TABS,ioos:station:wmo:42050:1,2013-11-04T02:30:00Z,28.8425,-94.2433,2.0,34.2934,11111222 
TABS,ioos:station:wmo:42050:1,2013-11-04T03:00:00Z,28.8425,-94.2433,2.0,34.2995,11111222 
TABS,ioos:station:wmo:42050:1,2013-11-04T03:30:00Z,28.8425,-94.2433,2.0,34.313,11111222 
TABS,ioos:station:wmo:42050:1,2013-11-04T04:00:00Z,28.8425,-94.2433,2.0,34.3176,11111222 
TABS,ioos:station:wmo:42050:1,2013-11-04T04:30:00Z,28.8425,-94.2433,2.0,34.3251,11111222 
TABS,ioos:station:wmo:42050:1,2013-11-04T05:00:00Z,28.8425,-94.2433,2.0,34.3376,11111222 
TABS,ioos:station:wmo:42050:1,2013-11-04T05:30:00Z,28.8425,-94.2433,2.0,34.337,11111222 
TABS,ioos:station:wmo:42050:1,2013-11-04T06:00:00Z,28.8425,-94.2433,2.0,34.3435,11111222 
TABS,ioos:station:wmo:42050:1,2013-11-04T06:30:00Z,28.8425,-94.2433,2.0,34.3536,11111222 
TABS,ioos:station:wmo:42050:1,2013-11-04T07:00:00Z,28.8425,-94.2433,2.0,34.3685,11111222 
TABS,ioos:station:wmo:42050:1,2013-11-04T07:30:00Z,28.8425,-94.2433,2.0,34.3637,11111222 
TABS,ioos:station:wmo:42050:1,2013-11-04T08:00:00Z,28.8425,-94.2433,2.0,34.3772,11111222 
TABS,ioos:station:wmo:42050:1,2013-11-04T08:30:00Z,28.8425,-94.2433,2.0,34.3821,11111222 
TABS,ioos:station:wmo:42050:1,2013-11-04T09:00:00Z,28.8425,-94.2433,2.0,34.3757,11111222 
TABS,ioos:station:wmo:42050:1,2013-11-04T09:30:00Z,28.8425,-94.2433,2.0,34.3732,11111222 
TABS,ioos:station:wmo:42050:1,2013-11-04T10:00:00Z,28.8425,-94.2433,2.0,34.4115,11111222 
TABS,ioos:station:wmo:42050:1,2013-11-04T10:30:00Z,28.8425,-94.2433,2.0,34.4507,11111222 
TABS,ioos:station:wmo:42050:1,2013-11-04T11:00:00Z,28.8425,-94.2433,2.0,34.484,11111222 
TABS,ioos:station:wmo:42050:1,2013-11-04T11:30:00Z,28.8425,-94.2433,2.0,34.5197,11111222 
TABS,ioos:station:wmo:42050:1,2013-11-04T12:00:00Z,28.8425,-94.2433,2.0,34.5391,11111222 
TABS,ioos:station:wmo:42050:1,2013-11-04T12:30:00Z,28.8425,-94.2433,2.0,34.5645,11111222 
TABS,ioos:station:wmo:42050:1,2013-11-04T13:00:00Z,28.8425,-94.2433,2.0,34.634,11111222 
TABS,ioos:station:wmo:42050:1,2013-11-04T13:30:00Z,28.8425,-94.2433,2.0,34.6788,11111222 
TABS,ioos:station:wmo:42050:1,2013-11-04T14:00:00Z,28.8425,-94.2433,2.0,34.6242,11111222 
TABS,ioos:station:wmo:42050:1,2013-11-04T14:30:00Z,28.8425,-94.2433,2.0,34.666,11111222 
TABS,ioos:station:wmo:42050:1,2013-11-04T15:00:00Z,28.8425,-94.2433,2.0,34.7618,11111222 
TABS,ioos:station:wmo:42050:1,2013-11-04T15:30:00Z,28.8425,-94.2433,2.0,34.8113,11111222 
TABS,ioos:station:wmo:42050:1,2013-11-04T16:00:00Z,28.8425,-94.2433,2.0,34.7466,11111222 
TABS,ioos:station:wmo:42050:1,2013-11-04T16:30:00Z,28.8425,-94.2433,2.0,34.7618,11111222 
TABS,ioos:station:wmo:42050:1,2013-11-04T17:00:00Z,28.8425,-94.2433,2.0,34.8036,11111222 
TABS,ioos:station:wmo:42050:1,2013-11-04T17:30:00Z,28.8425,-94.2433,2.0,34.8014,11111222 
TABS,ioos:station:wmo:42050:1,2013-11-04T18:00:00Z,28.8425,-94.2433,2.0,34.831,11111222 
TABS,ioos:station:wmo:42050:1,2013-11-04T18:30:00Z,28.8425,-94.2433,2.0,34.8691,11111222 
TABS,ioos:station:wmo:42050:1,2013-11-04T19:00:00Z,28.8425,-94.2433,2.0,34.9004,11111222 
TABS,ioos:station:wmo:42050:1,2013-11-04T19:30:00Z,28.8425,-94.2433,2.0,34.9092,11111222 
TABS,ioos:station:wmo:42050:1,2013-11-04T20:00:00Z,28.8425,-94.2433,2.0,34.9163,11111222 
TABS,ioos:station:wmo:42050:1,2013-11-04T20:30:00Z,28.8425,-94.2433,2.0,34.9177,11111222 
TABS,ioos:station:wmo:42050:1,2013-11-04T21:00:00Z,28.8425,-94.2433,2.0,34.9181,11111222 
TABS,ioos:station:wmo:42050:1,2013-11-04T21:30:00Z,28.8425,-94.2433,2.0,34.9248,11111222 
TABS,ioos:station:wmo:42050:1,2013-11-04T22:00:00Z,28.8425,-94.2433,2.0,34.9262,11111222 
TABS,ioos:station:wmo:42050:1,2013-11-04T22:30:00Z,28.8425,-94.2433,2.0,34.9223,11111222 
TABS,ioos:station:wmo:42050:1,2013-11-04T23:00:00Z,28.8425,-94.2433,2.0,34.9129,11111222 
TABS,ioos:station:wmo:42050:1,2013-11-04T23:30:00Z,28.8425,-94.2433,2.0,34.905,11111222 
TABS,ioos:station:wmo:42050:1,2013-11-05T00:00:00Z,28.8425,-94.2433,2.0,34.925,11111222 
TABS,ioos:station:wmo:42050:1,2013-11-05T00:30:00Z,28.8425,-94.2433,2.0,34.9493,11111222 
TABS,ioos:station:wmo:42050:1,2013-11-05T01:00:00Z,28.8425,-94.2433,2.0,34.9849,11111222 
TABS,ioos:station:wmo:42050:1,2013-11-05T01:30:00Z,28.8425,-94.2433,2.0,35.0158,11111222 
TABS,ioos:station:wmo:42050:1,2013-11-05T02:00:00Z,28.8425,-94.2433,2.0,35.0194,11111222 
TABS,ioos:station:wmo:42050:1,2013-11-05T02:30:00Z,28.8425,-94.2433,2.0,35.0203,11111222 
TABS,ioos:station:wmo:42050:1,2013-11-05T03:00:00Z,28.8425,-94.2433,2.0,35.0134,11111222 
TABS,ioos:station:wmo:42050:1,2013-11-05T03:30:00Z,28.8425,-94.2433,2.0,35.0054,11111222 
TABS,ioos:station:wmo:42050:1,2013-11-05T04:00:00Z,28.8425,-94.2433,2.0,34.9948,11111222 
TABS,ioos:station:wmo:42050:1,2013-11-05T04:30:00Z,28.8425,-94.2433,2.0,34.989,11111222 
TABS,ioos:station:wmo:42050:1,2013-11-05T05:00:00Z,28.8425,-94.2433,2.0,34.986,11111222 
TABS,ioos:station:wmo:42050:1,2013-11-05T05:30:00Z,28.8425,-94.2433,2.0,34.9863,11111222 
TABS,ioos:station:wmo:42050:1,2013-11-05T06:00:00Z,28.8425,-94.2433,2.0,34.9915,11111222 
TABS,ioos:station:wmo:42050:1,2013-11-05T06:30:00Z,28.8425,-94.2433,2.0,34.9979,11111222 
TABS,ioos:station:wmo:42050:1,2013-11-05T07:00:00Z,28.8425,-94.2433,2.0,35.0096,11111222 
TABS,ioos:station:wmo:42050:1,2013-11-05T07:30:00Z,28.8425,-94.2433,2.0,35.0129,11111222 
TABS,ioos:station:wmo:42050:1,2013-11-05T08:00:00Z,28.8425,-94.2433,2.0,35.0228,11111222 
TABS,ioos:station:wmo:42050:1,2013-11-05T08:30:00Z,28.8425,-94.2433,2.0,35.0178,11111222 
TABS,ioos:station:wmo:42050:1,2013-11-05T09:00:00Z,28.8425,-94.2433,2.0,34.9976,11111222 
TABS,ioos:station:wmo:42050:1,2013-11-05T09:30:00Z,28.8425,-94.2433,2.0,34.9703,11111222 
TABS,ioos:station:wmo:42050:1,2013-11-05T10:00:00Z,28.8425,-94.2433,2.0,34.9539,11111222 
TABS,ioos:station:wmo:42050:1,2013-11-05T10:30:00Z,28.8425,-94.2433,2.0,34.9552,11111222 
TABS,ioos:station:wmo:42050:1,2013-11-05T11:00:00Z,28.8425,-94.2433,2.0,34.9386,11111222 
TABS,ioos:station:wmo:42050:1,2013-11-05T11:30:00Z,28.8425,-94.2433,2.0,34.9291,11111222 
TABS,ioos:station:wmo:42050:1,2013-11-05T12:00:00Z,28.8425,-94.2433,2.0,34.929,11111222 
TABS,ioos:station:wmo:42050:1,2013-11-05T12:30:00Z,28.8425,-94.2433,2.0,34.9194,11111222 
TABS,ioos:station:wmo:42050:1,2013-11-05T13:00:00Z,28.8425,-94.2433,2.0,34.9091,11111222 
TABS,ioos:station:wmo:42050:1,2013-11-05T13:30:00Z,28.8425,-94.2433,2.0,34.9013,11111222 
TABS,ioos:station:wmo:42050:1,2013-11-05T14:00:00Z,28.8425,-94.2433,2.0,34.892,11111222 
TABS,ioos:station:wmo:42050:1,2013-11-05T14:30:00Z,28.8425,-94.2433,2.0,34.8752,11111222 
TABS,ioos:station:wmo:42050:1,2013-11-05T15:00:00Z,28.8425,-94.2433,2.0,34.8573,11111222 
TABS,ioos:station:wmo:42050:1,2013-11-05T15:30:00Z,28.8425,-94.2433,2.0,34.8445,11111222 
TABS,ioos:station:wmo:42050:1,2013-11-05T16:00:00Z,28.8425,-94.2433,2.0,34.8272,11111222 
TABS,ioos:station:wmo:42050:1,2013-11-05T16:30:00Z,28.8425,-94.2433,2.0,34.8145,11111222 
TABS,ioos:station:wmo:42050:1,2013-11-05T17:00:00Z,28.8425,-94.2433,2.0,34.7987,11111222 
TABS,ioos:station:wmo:42050:1,2013-11-05T17:30:00Z,28.8425,-94.2433,2.0,34.7891,11111222 
TABS,ioos:station:wmo:42050:1,2013-11-05T18:00:00Z,28.8425,-94.2433,2.0,34.7825,11111222 
TABS,ioos:station:wmo:42050:1,2013-11-05T18:30:00Z,28.8425,-94.2433,2.0,34.7808,11111222 
TABS,ioos:station:wmo:42050:1,2013-11-05T19:00:00Z,28.8425,-94.2433,2.0,34.7836,11111222 
TABS,ioos:station:wmo:42050:1,2013-11-05T19:30:00Z,28.8425,-94.2433,2.0,34.7832,11111222 
TABS,ioos:station:wmo:42050:1,2013-11-05T20:00:00Z,28.8425,-94.2433,2.0,34.7814,11111222 
TABS,ioos:station:wmo:42050:1,2013-11-05T20:30:00Z,28.8425,-94.2433,2.0,34.7856,11111222 
TABS,ioos:station:wmo:42050:1,2013-11-05T21:00:00Z,28.8425,-94.2433,2.0,34.6246,11111222 
TABS,ioos:station:wmo:42050:1,2013-11-05T21:30:00Z,28.8425,-94.2433,2.0,34.5814,11111222 
TABS,ioos:station:wmo:42050:1,2013-11-05T22:00:00Z,28.8425,-94.2433,2.0,34.5552,11111222 
TABS,ioos:station:wmo:42050:1,2013-11-05T22:30:00Z,28.8425,-94.2433,2.0,34.5381,11111222 
TABS,ioos:station:wmo:42050:1,2013-11-05T23:00:00Z,28.8425,-94.2433,2.0,34.5444,11111222 
TABS,ioos:station:wmo:42050:1,2013-11-05T23:30:00Z,28.8425,-94.2433,2.0,34.5007,11111222 
TABS,ioos:station:wmo:42050:1,2013-11-06T00:00:00Z,28.8425,-94.2433,2.0,34.4893,11111222 
TABS,ioos:station:wmo:42050:1,2013-11-06T00:30:00Z,28.8425,-94.2433,2.0,34.4784,11111222 
TABS,ioos:station:wmo:42050:1,2013-11-06T01:00:00Z,28.8425,-94.2433,2.0,34.4772,11111222 
TABS,ioos:station:wmo:42050:1,2013-11-06T01:30:00Z,28.8425,-94.2433,2.0,34.4895,11111222 
TABS,ioos:station:wmo:42050:1,2013-11-06T02:00:00Z,28.8425,-94.2433,2.0,34.4875,11111222 
TABS,ioos:station:wmo:42050:1,2013-11-06T02:30:00Z,28.8425,-94.2433,2.0,34.4823,11111222 
TABS,ioos:station:wmo:42050:1,2013-11-06T03:00:00Z,28.8425,-94.2433,2.0,34.4817,11111222 
TABS,ioos:station:wmo:42050:1,2013-11-06T03:30:00Z,28.8425,-94.2433,2.0,34.4666,11111222 
TABS,ioos:station:wmo:42050:1,2013-11-06T04:00:00Z,28.8425,-94.2433,2.0,34.4663,11111222 
TABS,ioos:station:wmo:42050:1,2013-11-06T04:30:00Z,28.8425,-94.2433,2.0,34.452,11111222 
TABS,ioos:station:wmo:42050:1,2013-11-06T05:00:00Z,28.8425,-94.2433,2.0,34.4527,11111222 
TABS,ioos:station:wmo:42050:1,2013-11-06T05:30:00Z,28.8425,-94.2433,2.0,34.4529,11111222 
TABS,ioos:station:wmo:42050:1,2013-11-06T06:00:00Z,28.8425,-94.2433,2.0,34.4479,11111222 
TABS,ioos:station:wmo:42050:1,2013-11-06T06:30:00Z,28.8425,-94.2433,2.0,34.4549,11111222 
TABS,ioos:station:wmo:42050:1,2013-11-06T07:00:00Z,28.8425,-94.2433,2.0,34.471,11111222 
TABS,ioos:station:wmo:42050:1,2013-11-06T07:30:00Z,28.8425,-94.2433,2.0,34.4563,11111222 
TABS,ioos:station:wmo:42050:1,2013-11-06T08:00:00Z,28.8425,-94.2433,2.0,34.4495,11111222 
TABS,ioos:station:wmo:42050:1,2013-11-06T08:30:00Z,28.8425,-94.2433,2.0,34.4435,11111222 
TABS,ioos:station:wmo:42050:1,2013-11-06T09:00:00Z,28.8425,-94.2433,2.0,34.4481,11111222 
TABS,ioos:station:wmo:42050:1,2013-11-06T09:30:00Z,28.8425,-94.2433,2.0,34.4305,11111222 
TABS,ioos:station:wmo:42050:1,2013-11-06T10:00:00Z,28.8425,-94.2433,2.0,34.4284,11111222 
TABS,ioos:station:wmo:42050:1,2013-11-06T10:30:00Z,28.8425,-94.2433,2.0,34.4587,11111222 
TABS,ioos:station:wmo:42050:1,2013-11-06T11:00:00Z,28.8425,-94.2433,2.0,34.4744,11111222 
TABS,ioos:station:wmo:42050:1,2013-11-06T11:30:00Z,28.8425,-94.2433,2.0,34.5155,11111222 
TABS,ioos:station:wmo:42050:1,2013-11-06T12:00:00Z,28.8425,-94.2433,2.0,34.5242,11111222 